Lexington Weather

Lexington, Massachusetts, USA

78°F
7/25/2024 12:35pm 
  • Lexington Conditions: Mostly cloudy
  • Temperature: 77.9°F / 25.5°CWarmer 1.3°F than last hour.
  • Dew Point: 72.3°FIncreased 0.2°Fsince last hour.
  • Relative Humidity: 83%Decreased 3.0% since last hour.
  • Wind: Wind from SSW SSW Calm, 10-min avg: 2 mph, gust: 7 mph
  • Barometer: 29.93 inFalling 0.02  inHg/hr Falling Slowly
  • Visibility: 10 miles
  • Rain Today: 0.00 in
  •   

Regional Weather Roundup
for Boston, MA

        
000
ASUS41 KBOX 220410
RWRBOX

REGIONAL WEATHER ROUNDUP
NATIONAL WEATHER SERVICE BOSTON/NORTON MA
1200 AM EDT MON JUL 22 2024

NOTE:  "FAIR" INDICATES FEW OR NO CLOUDS BELOW 12,000 FEET WITH NO 
SIGNIFICANT WEATHER AND/OR OBSTRUCTIONS TO VISIBILITY.

MAZALL-220500-
EASTERN MASSACHUSETTS
  
CITY           SKY/WX    TMP DP  RH WIND       PRES   REMARKS
BOSTON         MOCLDY    69  62  78 N3        30.05R                  
BEVERLY        MOCLDY    65  60  84 CALM      30.04R                  
LAWRENCE       PTCLDY    66  62  87 CALM      30.07R                  
BEDFORD        MOCLDY    68  63  84 CALM      30.04R                  
NORWOOD        MOCLDY    70  68  93 CALM      30.05R                  
MARSHFIELD     CLOUDY    68  64  88 CALM      30.04R                  
PLYMOUTH       CLEAR     71  66  84 CALM      30.04R                  
TAUNTON        MOCLDY    68  65  90 CALM      30.04R                  
NEW BEDFORD    MOCLDY    72  67  84 CALM      30.04R                  
$$

MAZALL-220500-
CAPE COD AND THE ISLANDS
  
CITY           SKY/WX    TMP DP  RH WIND       PRES   REMARKS
FALMOUTH       CLEAR     70  68  94 CALM      30.06R                  
HYANNIS        CLEAR     69  68  96 CALM      30.04R                  
CHATHAM        CLEAR     70  67  90 CALM      30.05R                  
PROVINCETOWN   CLEAR     66  65  96 CALM      30.05R                  
NANTUCKET      CLEAR     71  70  96 NW5       30.05S                  
MARTHAS VNYRD  CLEAR     72  67  84 W8        30.05R                  
$$
 
MAZALL-220500-
CENTRAL AND WESTERN MASSACHUSETTS
  
CITY           SKY/WX    TMP DP  RH WIND       PRES   REMARKS
WORCESTER      CLEAR     70  62  76 W5        30.09S                  
FITCHBURG      CLEAR     67  64  90 CALM      30.07R                  
ORANGE           N/A     65  63  93 CALM      30.09R                  
SPRINGFIELD    CLEAR     66  65  95 E3        30.04R                  
WESTFIELD      MOCLDY    68  66  93 CALM      30.07R                  
NORTH ADAMS    CLEAR     62  62 100 CALM      30.10R                  
PITTSFIELD     FOG       62  61  96 CALM      30.10S VSB 1/4          
$$
 
RIZALL-220500-
RHODE ISLAND
  
CITY           SKY/WX    TMP DP  RH WIND       PRES   REMARKS
PROVIDENCE     CLOUDY    74  66  76 W8        30.05S                  
NEWPORT        MOCLDY    71  66  84 S5        30.06R                  
BLOCK ISLAND   PTCLDY    69  67  93 W10         N/A                   
SMITHFIELD     CLOUDY    69  69 100 CALM      30.07R                  
WESTERLY       PTCLDY    71  68  90 CALM      30.06R                  
$$
 
CTZALL-220500-
CONNECTICUT
  
CITY           SKY/WX    TMP DP  RH WIND       PRES   REMARKS
BRADLEY INTL   MOCLDY    73  65  75 W5        30.06R                  
HARTFORD       PTCLDY    74  67  78 SE3       30.06R                  
PLAINVILLE     MOCLDY    71  67  87 CALM      30.07R                  
BRIDGEPORT     PTCLDY    76  68  76 SW6       30.06S                  
DANBURY        PTCLDY    69  65  86 CALM      30.09R                  
GROTON         PTCLDY    73  70  90 CALM      30.06R                  
NEW HAVEN      PTCLDY    77  70  79 CALM      30.06S                  
CHESTER        PTCLDY    72  70  94 CALM      30.08S                  
MERIDEN        PTCLDY    69  64  84 CALM      30.07R                  
WILLIMANTIC    CLOUDY    72  66  81 CALM      30.07R                  
OXFORD         PTCLDY    68  66  93 CALM      30.10R                  
$$

MEZ002-015-021-024-NHZ003-005-008-011-012-014-VTZ005-008-220500-
NORTHERN NEW ENGLAND
  
CITY           SKY/WX    TMP DP  RH WIND       PRES   REMARKS
PORTLAND ME    CLEAR     61  59  93 S5        30.06R                  
BANGOR ME      CLEAR     58  49  72 SW6       30.03S                  
CONCORD NH     CLEAR     60  58  92 E3        30.07R                  
MANCHESTER NH  PTCLDY    65  58  78 CALM      30.05R                  
NASHUA NH      CLEAR     67  67 100 W3        30.07R                  
PORTSMOUTH NH  MOCLDY    66  63  91 CALM      30.04R                  
JAFFREY NH     CLEAR     63  59  87 CALM      30.11R                  
KEENE NH       CLEAR     63  61  93 CALM      30.08R                  
BURLINGTON VT  CLEAR     64  58  80 E3        30.08R                  
MT. WASHINGTON FOG       43  43 100 W48G54      N/A  VSB 0   WCI  30  
$$

NYZ052-076-220500-
EASTERN NEW YORK
  
CITY           SKY/WX    TMP DP  RH WIND       PRES   REMARKS
ALBANY         MOCLDY    69  66  90 CALM      30.07S                  
NEW YORK CITY  MOCLDY    80  65  59 SW6       30.05S                  
$$
 
ANZALL-220500-
MARINE OBSERVATIONS
  
STATION/POSITION TIME  TEMP    WIND        PRES    VSBY  WAVE
                       AIR SEA DIR/SP/G                  HT/PER
                 (UTC) (F)     (DEG/KT/KT) (MB)    (MI)  (FT/S)
BOSTON BUOY      0350   66 66  360/  4/  4 1017.3R         1/ 7
BUZZARDS BAY     0300   71     240/ 13/ 13 1017.3R
NANTUCKET SOUND  0350   75 76  250/ 10/ 12 1016.6R         1/ 2
MASS BAY-STELLWA 0204   66 65   10/  4/  6 1017.2R  1 7/8  1/ 8
ISLE OF SHOALS   0300   70     240/  9/  9 1016.5R
S OF BLOCK IS    0356      73                N/A           3/ 5
$$

......................KEY.........................
  SKY/WX - SKY CONDITION/PRESENT WEATHER
  TMP    - TEMPERATURE IN FAHRENHEIT
  DWPT   - DEWPOINT IN FAHRENHEIT
  RH     - RELATIVE HUMIDITY IN PERCENT
  WIND   - DIRECTION AND SPEED IN MPH
  PRES   - MEAN SEA LEVEL PRESSURE IN INCHES OF HG
  WCI    - WIND CHILL INDEX
  VSB    - VISIBILITY IN MILES
  HX     - HEAT INDEX
  TC     - TEMPERATURE IN CELSIUS
  VRB    - VARIABLE WIND DIRECTION
  N/A    - NOT AVAILABLE
  
      

Other recent Regional Weather Roundups

Thu Jul 25, 12:10pm EDT

Thu Jul 25, 11:10am EDT

Thu Jul 25, 10:10am EDT

Thu Jul 25, 9:10am EDT

Thu Jul 25, 8:10am EDT

Thu Jul 25, 7:10am EDT

Thu Jul 25, 6:10am EDT

Thu Jul 25, 5:10am EDT

Thu Jul 25, 4:10am EDT

Thu Jul 25, 3:10am EDT

Thu Jul 25, 2:10am EDT

Thu Jul 25, 1:10am EDT

Thu Jul 25, 12:10am EDT

Wed Jul 24, 11:10pm EDT

Wed Jul 24, 10:10pm EDT

Wed Jul 24, 9:10pm EDT

Wed Jul 24, 8:10pm EDT

Wed Jul 24, 7:10pm EDT

Wed Jul 24, 6:10pm EDT

Wed Jul 24, 5:10pm EDT

Wed Jul 24, 4:10pm EDT

Wed Jul 24, 3:10pm EDT

Wed Jul 24, 2:10pm EDT

Wed Jul 24, 1:10pm EDT

Wed Jul 24, 12:10pm EDT

Wed Jul 24, 11:10am EDT

Wed Jul 24, 10:10am EDT

Wed Jul 24, 9:10am EDT

Wed Jul 24, 8:10am EDT

Wed Jul 24, 7:10am EDT

Wed Jul 24, 6:10am EDT

Wed Jul 24, 5:10am EDT

Wed Jul 24, 4:10am EDT

Wed Jul 24, 3:10am EDT

Wed Jul 24, 2:10am EDT

Wed Jul 24, 1:10am EDT

Wed Jul 24, 12:10am EDT

Tue Jul 23, 11:10pm EDT

Tue Jul 23, 10:10pm EDT

Tue Jul 23, 9:10pm EDT

Tue Jul 23, 8:10pm EDT

Tue Jul 23, 7:10pm EDT

Tue Jul 23, 6:10pm EDT

Tue Jul 23, 5:10pm EDT

Tue Jul 23, 4:10pm EDT

Tue Jul 23, 3:10pm EDT

Tue Jul 23, 2:10pm EDT

Tue Jul 23, 1:10pm EDT

Tue Jul 23, 12:10pm EDT

Tue Jul 23, 11:10am EDT

Tue Jul 23, 10:10am EDT

Tue Jul 23, 10:10am EDT

Tue Jul 23, 9:10am EDT

Tue Jul 23, 8:10am EDT

Tue Jul 23, 7:10am EDT

Tue Jul 23, 6:10am EDT

Tue Jul 23, 5:10am EDT

Tue Jul 23, 4:10am EDT

Tue Jul 23, 3:10am EDT

Tue Jul 23, 2:10am EDT

Tue Jul 23, 1:10am EDT

Tue Jul 23, 12:10am EDT

Mon Jul 22, 11:10pm EDT

Mon Jul 22, 10:10pm EDT

Mon Jul 22, 9:10pm EDT

Mon Jul 22, 8:10pm EDT

Mon Jul 22, 7:10pm EDT

Mon Jul 22, 6:10pm EDT

Mon Jul 22, 5:10pm EDT

Mon Jul 22, 4:10pm EDT

Mon Jul 22, 3:10pm EDT

Mon Jul 22, 2:10pm EDT

Mon Jul 22, 1:10pm EDT

Mon Jul 22, 12:10pm EDT

Mon Jul 22, 11:10am EDT

Mon Jul 22, 10:10am EDT

Mon Jul 22, 9:10am EDT

Mon Jul 22, 8:10am EDT

Mon Jul 22, 7:10am EDT

Mon Jul 22, 6:10am EDT

Mon Jul 22, 5:10am EDT

Mon Jul 22, 4:10am EDT

Mon Jul 22, 3:10am EDT

Mon Jul 22, 2:10am EDT

Mon Jul 22, 1:10am EDT

Sun Jul 21, 11:10pm EDT

Sun Jul 21, 10:10pm EDT

Sun Jul 21, 9:10pm EDT

Sun Jul 21, 8:10pm EDT

Sun Jul 21, 7:10pm EDT

Sun Jul 21, 6:10pm EDT

Sun Jul 21, 5:10pm EDT

Sun Jul 21, 4:10pm EDT

Sun Jul 21, 3:10pm EDT

Sun Jul 21, 2:10pm EDT

Sun Jul 21, 1:10pm EDT

Sun Jul 21, 12:10pm EDT

Sun Jul 21, 11:10am EDT

Sun Jul 21, 10:10am EDT

Sun Jul 21, 9:10am EDT

Sun Jul 21, 8:10am EDT

Sun Jul 21, 7:10am EDT

Sun Jul 21, 6:10am EDT

Sun Jul 21, 5:10am EDT

Sun Jul 21, 4:10am EDT

Sun Jul 21, 3:10am EDT

Sun Jul 21, 2:10am EDT

Sun Jul 21, 1:10am EDT

Sun Jul 21, 12:10am EDT

Sat Jul 20, 11:10pm EDT

Sat Jul 20, 10:10pm EDT

Sat Jul 20, 9:10pm EDT

Sat Jul 20, 8:10pm EDT

Sat Jul 20, 7:10pm EDT

Sat Jul 20, 6:10pm EDT

Sat Jul 20, 5:10pm EDT

Sat Jul 20, 4:10pm EDT

Sat Jul 20, 3:10pm EDT

Sat Jul 20, 2:10pm EDT

Sat Jul 20, 1:10pm EDT

Sat Jul 20, 12:10pm EDT

Sat Jul 20, 11:10am EDT

Sat Jul 20, 10:10am EDT

Sat Jul 20, 9:10am EDT

Sat Jul 20, 8:10am EDT

Sat Jul 20, 7:10am EDT

Sat Jul 20, 6:10am EDT

Sat Jul 20, 5:10am EDT

Sat Jul 20, 4:10am EDT

Sat Jul 20, 3:10am EDT

Sat Jul 20, 2:10am EDT

Sat Jul 20, 1:10am EDT

Sat Jul 20, 12:10am EDT

Fri Jul 19, 11:10pm EDT

Fri Jul 19, 10:10pm EDT

Fri Jul 19, 9:10pm EDT

Fri Jul 19, 8:10pm EDT

Fri Jul 19, 7:10pm EDT

Fri Jul 19, 6:10pm EDT

Fri Jul 19, 5:10pm EDT

Fri Jul 19, 4:10pm EDT

Fri Jul 19, 3:10pm EDT

Fri Jul 19, 2:10pm EDT

Fri Jul 19, 1:10pm EDT

Fri Jul 19, 12:10pm EDT

Fri Jul 19, 11:10am EDT

Fri Jul 19, 10:10am EDT

Fri Jul 19, 9:10am EDT

Fri Jul 19, 8:10am EDT

Fri Jul 19, 7:10am EDT

Fri Jul 19, 6:10am EDT

Fri Jul 19, 5:10am EDT

Fri Jul 19, 4:10am EDT

Fri Jul 19, 3:10am EDT

Fri Jul 19, 2:10am EDT

Fri Jul 19, 1:10am EDT

Fri Jul 19, 12:10am EDT

Thu Jul 18, 11:10pm EDT

Thu Jul 18, 10:10pm EDT

Thu Jul 18, 9:10pm EDT

Thu Jul 18, 8:10pm EDT

Thu Jul 18, 7:10pm EDT

Thu Jul 18, 6:10pm EDT

Thu Jul 18, 5:10pm EDT

Thu Jul 18, 4:10pm EDT

Thu Jul 18, 3:10pm EDT

Thu Jul 18, 2:10pm EDT

Thu Jul 18, 1:10pm EDT